| time (UTC) | temp F | wind direction | speed MPH | gust MPH | rain 1hr in | rain 24hr in | rain mn in | humidity % | barometer mb |
| 20260505230423 | 70 | 183 | 3.0 | 3.0 | 0.00 | 0.02 | 0.02 | 74 | 3399.8 |
| 20260505225919 | 70 | 148 | 2.0 | 3.0 | 0.00 | 0.02 | 0.02 | 74 | 3399.5 |
| 20260505225417 | 70 | 125 | 1.0 | 2.0 | 0.00 | 0.02 | 0.02 | 74 | 3399.5 |
| 20260505224912 | 70 | 86 | 1.0 | 2.0 | 0.00 | 0.02 | 0.02 | 74 | 3399.6 |
| 20260505224410 | 70 | 124 | 0.0 | 2.0 | 0.00 | 0.02 | 0.02 | 76 | 3399.7 |
| 20260505223906 | 70 | 146 | 2.0 | 3.0 | 0.00 | 0.02 | 0.02 | 76 | 3399.6 |
| 20260505223403 | 70 | 237 | 2.0 | 3.0 | 0.00 | 0.02 | 0.02 | 79 | 3399.7 |
| 20260505222859 | 70 | 139 | 3.0 | 3.0 | 0.00 | 0.02 | 0.02 | 78 | 3399.6 |
| 20260505222356 | 70 | 128 | 0.0 | 2.0 | 0.00 | 0.02 | 0.02 | 78 | 3399.3 |
| 20260505221852 | 70 | 169 | 0.0 | 0.0 | 0.00 | 0.02 | 0.02 | 78 | 3399.4 |
| 20260505221349 | 70 | 120 | 1.0 | 2.0 | 0.00 | 0.02 | 0.02 | 78 | 3399.6 |
| 20260505220846 | 70 | 91 | 1.0 | 2.0 | 0.00 | 0.02 | 0.02 | 78 | 3399.5 |
| 20260505220343 | 70 | 123 | 1.0 | 2.0 | 0.00 | 0.02 | 0.02 | 78 | 3399.6 |
| 20260505215841 | 70 | 169 | 3.0 | 3.0 | 0.00 | 0.02 | 0.02 | 78 | 3399.6 |
| 20260505215339 | 70 | 262 | 5.0 | 5.0 | 0.00 | 0.02 | 0.02 | 79 | 3399.4 |
| 20260505214837 | 70 | 142 | 0.0 | 0.0 | 0.00 | 0.02 | 0.02 | 79 | 3399.5 |
| 20260505214334 | 70 | 81 | 0.0 | 2.0 | 0.00 | 0.02 | 0.02 | 79 | 3399.6 |
| 20260505213831 | 69 | 55 | 1.0 | 2.0 | 0.00 | 0.02 | 0.02 | 80 | 3399.6 |
| 20260505213329 | 70 | 117 | 0.0 | 0.0 | 0.00 | 0.02 | 0.02 | 80 | 3399.7 |
| 20260505212825 | 70 | 103 | 0.0 | 0.0 | 0.00 | 0.02 | 0.02 | 81 | 3399.9 |
| 20260505212322 | 69 | 138 | 1.0 | 2.0 | 0.00 | 0.02 | 0.02 | 81 | 3400.0 |
| 20260505211818 | 69 | 156 | 1.0 | 2.0 | 0.00 | 0.02 | 0.02 | 81 | 3400.0 |
| 20260505211316 | 69 | 124 | 2.0 | 3.0 | 0.00 | 0.02 | 0.02 | 82 | 3400.1 |
| 20260505210812 | 69 | 101 | 0.0 | 0.0 | 0.00 | 0.02 | 0.02 | 82 | 3400.2 |
| 20260505210309 | 69 | 132 | 2.0 | 3.0 | 0.00 | 0.02 | 0.02 | 82 | 3400.0 |
| 20260505205806 | 69 | 70 | 0.0 | 2.0 | 0.00 | 0.02 | 0.02 | 82 | 3399.8 |
| 20260505205305 | 70 | 66 | 1.0 | 3.0 | 0.00 | 0.02 | 0.02 | 80 | 3400.1 |
| 20260505204801 | 70 | 85 | 0.0 | 0.0 | 0.00 | 0.02 | 0.02 | 80 | 3399.9 |
| 20260505204259 | 71 | 156 | 5.0 | 7.0 | 0.00 | 0.02 | 0.02 | 78 | 3400.1 |
| 20260505203755 | 71 | 94 | 0.0 | 2.0 | 0.00 | 0.02 | 0.02 | 78 | 3400.0 |
| 20260505203253 | 71 | 95 | 0.0 | 0.0 | 0.00 | 0.02 | 0.02 | 78 | 3399.9 |
| 20260505202749 | 72 | 68 | 1.0 | 2.0 | 0.00 | 0.02 | 0.02 | 76 | 3399.9 |
| 20260505202244 | 72 | 115 | 1.0 | 2.0 | 0.00 | 0.02 | 0.02 | 76 | 3399.8 |
| 20260505201736 | 71 | 159 | 2.0 | 5.0 | 0.00 | 0.02 | 0.02 | 77 | 3399.8 |
| 20260505201233 | 71 | 177 | 5.0 | 5.0 | 0.00 | 0.02 | 0.02 | 78 | 3399.9 |
| 20260505200731 | 71 | 83 | 1.0 | 2.0 | 0.00 | 0.02 | 0.02 | 78 | 3400.0 |
| 20260505200228 | 71 | 96 | 2.0 | 2.0 | 0.00 | 0.02 | 0.02 | 78 | 3400.4 |
| 20260505195723 | 71 | 192 | 0.0 | 2.0 | 0.00 | 0.02 | 0.02 | 80 | 3400.5 |
| 20260505195221 | 71 | 120 | 3.0 | 3.0 | 0.00 | 0.02 | 0.02 | 79 | 3400.4 |
| 20260505194718 | 72 | 61 | 0.0 | 2.0 | 0.00 | 0.02 | 0.02 | 78 | 3400.7 |
| 20260505194214 | 71 | 136 | 1.0 | 3.0 | 0.00 | 0.02 | 0.02 | 81 | 3400.7 |
| 20260505193710 | 70 | 100 | 0.0 | 2.0 | 0.00 | 0.02 | 0.02 | 79 | 3400.9 |
| 20260505193208 | 71 | 140 | 0.0 | 0.0 | 0.00 | 0.02 | 0.02 | 79 | 3400.9 |
| 20260505192707 | 71 | 136 | 2.0 | 3.0 | 0.00 | 0.02 | 0.02 | 80 | 3400.9 |
| 20260505192203 | 70 | 100 | 0.0 | 2.0 | 0.00 | 0.02 | 0.02 | 81 | 3400.9 |
| 20260505191702 | 69 | 142 | 2.0 | 3.0 | 0.00 | 0.02 | 0.02 | 82 | 3401.0 |
| 20260505191200 | 68 | 88 | 2.0 | 3.0 | 0.00 | 0.02 | 0.02 | 82 | 3401.2 |
| 20260505190656 | 68 | 138 | 3.0 | 3.0 | 0.00 | 0.02 | 0.02 | 83 | 3401.0 |
| 20260505190155 | 68 | 63 | 1.0 | 3.0 | 0.00 | 0.02 | 0.02 | 84 | 3401.3 |
| 20260505185653 | 67 | 173 | 0.0 | 0.0 | 0.00 | 0.02 | 0.02 | 87 | 3401.5 |
| 20260505185149 | 67 | 63 | 2.0 | 2.0 | 0.00 | 0.02 | 0.02 | 89 | 3401.5 |
| 20260505184645 | 66 | 139 | 0.0 | 0.0 | 0.00 | 0.02 | 0.02 | 91 | 3401.6 |
| 20260505184142 | 65 | 137 | 0.0 | 0.0 | 0.00 | 0.02 | 0.02 | 93 | 3401.7 |
| 20260505183639 | 64 | 131 | 0.0 | 0.0 | 0.00 | 0.02 | 0.02 | 94 | 3401.7 |
| 20260505183137 | 63 | 85 | 0.0 | 0.0 | 0.00 | 0.02 | 0.02 | 94 | 3401.6 |
| 20260505182633 | 63 | 96 | 0.0 | 0.0 | 0.00 | 0.02 | 0.02 | 94 | 3401.9 |
| 20260505182130 | 63 | 98 | 0.0 | 0.0 | 0.00 | 0.02 | 0.02 | 94 | 3401.9 |
| 20260505181626 | 64 | 161 | 1.0 | 2.0 | 0.00 | 0.02 | 0.02 | 93 | 3402.0 |
| 20260505181124 | 64 | 119 | 0.0 | 0.0 | 0.05 | 0.02 | 0.02 | 93 | 3401.9 |
| 20260505180620 | 64 | 119 | 0.0 | 0.0 | 0.05 | 0.02 | 0.02 | 93 | 3402.2 |
| 20260505180118 | 64 | 120 | 0.0 | 0.0 | 0.00 | 0.01 | 0.01 | 93 | 3402.3 |
| 20260505175613 | 64 | 102 | 1.0 | 2.0 | 0.00 | 0.01 | 0.01 | 93 | 3402.3 |
| 20260505175110 | 64 | 91 | 1.0 | 2.0 | 0.00 | 0.01 | 0.01 | 92 | 3402.6 |
| 20260505174606 | 64 | 94 | 0.0 | 0.0 | 0.00 | 0.01 | 0.01 | 92 | 3402.6 |
| 20260505174102 | 64 | 83 | 0.0 | 0.0 | 0.00 | 0.01 | 0.01 | 92 | 3402.4 |
| 20260505173559 | 64 | 132 | 2.0 | 2.0 | 0.00 | 0.01 | 0.01 | 92 | 3402.3 |
| 20260505173056 | 64 | 146 | 1.0 | 2.0 | 0.00 | 0.01 | 0.01 | 91 | 3402.3 |
| 20260505172554 | 64 | 139 | 0.0 | 2.0 | 0.00 | 0.01 | 0.01 | 91 | 3402.4 |
| 20260505172051 | 64 | 93 | 0.0 | 0.0 | 0.00 | 0.01 | 0.01 | 91 | 3402.1 |
| 20260505171545 | 64 | 134 | 1.0 | 2.0 | 0.00 | 0.01 | 0.01 | 91 | 3402.1 |
| 20260505171042 | 64 | 84 | 0.0 | 0.0 | 0.00 | 0.01 | 0.01 | 91 | 3402.2 |
| 20260505170539 | 64 | 122 | 1.0 | 2.0 | 0.00 | 0.01 | 0.01 | 91 | 3402.4 |
| 20260505170036 | 64 | 115 | 0.0 | 0.0 | 0.00 | 0.01 | 0.01 | 91 | 3402.2 |
| 20260505165531 | 64 | 93 | 0.0 | 0.0 | 0.00 | 0.01 | 0.01 | 92 | 3402.2 |
| 20260505165026 | 63 | 93 | 0.0 | 0.0 | 0.00 | 0.01 | 0.01 | 91 | 3402.1 |
| 20260505164523 | 63 | 113 | 0.0 | 0.0 | 0.00 | 0.01 | 0.01 | 91 | 3402.0 |
| 20260505164021 | 64 | 134 | 0.0 | 0.0 | 0.00 | 0.01 | 0.01 | 90 | 3402.3 |
| 20260505163519 | 64 | 103 | 0.0 | 2.0 | 0.07 | 0.01 | 0.01 | 89 | 3402.8 |
| 20260505163016 | 65 | 123 | 0.0 | 0.0 | 0.07 | 0.01 | 0.01 | 89 | 3402.4 |
| 20260505162509 | 65 | 143 | 1.0 | 2.0 | 0.07 | 0.01 | 0.01 | 87 | 3402.7 |
| 20260505162006 | 65 | 130 | 0.0 | 0.0 | 0.00 | 0.00 | 0.00 | 85 | 3402.9 |
| 20260505161502 | 65 | 130 | 1.0 | 2.0 | 0.00 | 0.00 | 0.00 | 82 | 3402.7 |
| 20260505161000 | 65 | 200 | 8.0 | 8.0 | 0.00 | 0.00 | 0.00 | 82 | 3403.1 |
| 20260505160458 | 65 | 124 | 0.0 | 0.0 | 0.00 | 0.00 | 0.00 | 81 | 3403.1 |
| 20260505152934 | 66 | 93 | 1.0 | 2.0 | 0.00 | 0.00 | 0.00 | 79 | 3403.1 |
| 20260505152431 | 66 | 177 | 2.0 | 3.0 | 0.00 | 0.00 | 0.00 | 79 | 3403.2 |
| 20260505151926 | 66 | 131 | 0.0 | 2.0 | 0.00 | 0.00 | 0.00 | 79 | 3403.0 |
| 20260505151422 | 66 | 126 | 0.0 | 0.0 | 0.00 | 0.00 | 0.00 | 79 | 3402.9 |
| 20260505150920 | 66 | 182 | 3.0 | 3.0 | 0.00 | 0.00 | 0.00 | 78 | 3403.2 |
| 20260505150416 | 66 | 92 | 0.0 | 0.0 | 0.00 | 0.00 | 0.00 | 79 | 3403.1 |
| 20260505140340 | 64 | 125 | 0.0 | 2.0 | 0.00 | 0.00 | 0.00 | 78 | 3402.3 |
| 20260505130303 | 63 | 120 | 0.0 | 0.0 | 0.00 | 0.00 | 0.00 | 79 | 3402.2 |
| 20260505124754 | 62 | 86 | 0.0 | 0.0 | 0.00 | 0.00 | 0.00 | 80 | 3402.1 |
| 20260505124251 | 62 | 85 | 0.0 | 2.0 | 0.00 | 0.00 | 0.00 | 80 | 3401.9 |
| 20260505123746 | 62 | 85 | 0.0 | 0.0 | 0.00 | 0.00 | 0.00 | 81 | 3402.0 |
| 20260505123243 | 62 | 86 | 0.0 | 0.0 | 0.00 | 0.00 | 0.00 | 80 | 3402.1 |
| 20260505122740 | 62 | 86 | 0.0 | 0.0 | 0.00 | 0.00 | 0.00 | 80 | 3402.2 |
| 20260505122237 | 62 | 86 | 0.0 | 0.0 | 0.00 | 0.00 | 0.00 | 80 | 3402.6 |
| 20260505121734 | 61 | 85 | 0.0 | 0.0 | 0.00 | 0.00 | 0.00 | 81 | 3402.2 |
| 20260505121230 | 61 | 80 | 0.0 | 2.0 | 0.00 | 0.00 | 0.00 | 81 | 3402.3 |
| 20260505120727 | 61 | 80 | 0.0 | 0.0 | 0.00 | 0.00 | 0.00 | 81 | 3402.2 |
| 20260505120223 | 61 | 80 | 0.0 | 0.0 | 0.00 | 0.00 | 0.00 | 81 | 3402.3 |
| 20260505115721 | 60 | 94 | 0.0 | 0.0 | 0.00 | 0.00 | 0.00 | 82 | 3402.1 |
| 20260505115219 | 60 | 100 | 0.0 | 2.0 | 0.00 | 0.00 | 0.00 | 82 | 3402.0 |
| 20260505114717 | 60 | 106 | 0.0 | 0.0 | 0.00 | 0.00 | 0.00 | 82 | 3402.0 |
| 20260505114212 | 60 | 106 | 0.0 | 0.0 | 0.00 | 0.00 | 0.00 | 82 | 3401.5 |
| 20260505113709 | 60 | 106 | 0.0 | 0.0 | 0.00 | 0.00 | 0.00 | 82 | 3401.6 |
| 20260505113206 | 60 | 60 | 0.0 | 0.0 | 0.00 | 0.00 | 0.00 | 82 | 3401.6 |
| 20260505112702 | 60 | 60 | 0.0 | 0.0 | 0.00 | 0.00 | 0.00 | 82 | 3401.7 |
| 20260505112200 | 59 | 60 | 0.0 | 2.0 | 0.00 | 0.00 | 0.00 | 82 | 3401.7 |
| 20260505111659 | 59 | 60 | 0.0 | 0.0 | 0.00 | 0.00 | 0.00 | 83 | 3401.8 |
| 20260505111155 | 59 | 49 | 0.0 | 0.0 | 0.00 | 0.00 | 0.00 | 83 | 3401.6 |
| 20260505110652 | 59 | 49 | 0.0 | 0.0 | 0.00 | 0.00 | 0.00 | 83 | 3401.4 |
| 20260505110149 | 59 | 49 | 0.0 | 0.0 | 0.00 | 0.00 | 0.00 | 83 | 3401.6 |
| 20260505102125 | 58 | 58 | 0.0 | 0.0 | 0.00 | 0.00 | 0.00 | 84 | 3401.8 |
| 20260505101624 | 58 | 58 | 0.0 | 0.0 | 0.00 | 0.00 | 0.00 | 84 | 3401.6 |
| 20260505101119 | 59 | 58 | 0.0 | 0.0 | 0.00 | 0.00 | 0.00 | 84 | 3401.7 |
| 20260505100616 | 59 | 58 | 0.0 | 0.0 | 0.00 | 0.00 | 0.00 | 83 | 3401.9 |
| 20260505100113 | 59 | 58 | 0.0 | 0.0 | 0.00 | 0.00 | 0.00 | 84 | 3401.8 |
| 20260505095609 | 58 | 58 | 0.0 | 0.0 | 0.00 | 0.00 | 0.00 | 84 | 3401.7 |
| 20260505095106 | 59 | 58 | 0.0 | 0.0 | 0.00 | 0.00 | 0.00 | 84 | 3401.7 |
| 20260505094602 | 58 | 58 | 0.0 | 0.0 | 0.00 | 0.00 | 0.00 | 84 | 3401.9 |
| 20260505094058 | 58 | 58 | 0.0 | 0.0 | 0.00 | 0.00 | 0.00 | 84 | 3401.9 |
| 20260505093554 | 58 | 51 | 0.0 | 0.0 | 0.00 | 0.00 | 0.00 | 84 | 3401.9 |
| 20260505093052 | 59 | 51 | 0.0 | 0.0 | 0.00 | 0.00 | 0.00 | 84 | 3401.7 |
| 20260505092549 | 59 | 51 | 0.0 | 0.0 | 0.00 | 0.00 | 0.00 | 83 | 3401.8 |
| 20260505092048 | 59 | 51 | 0.0 | 0.0 | 0.00 | 0.00 | 0.00 | 83 | 3401.8 |
| 20260505091544 | 59 | 51 | 0.0 | 0.0 | 0.00 | 0.00 | 0.00 | 83 | 3401.6 |
| 20260505091043 | 59 | 51 | 0.0 | 0.0 | 0.00 | 0.00 | 0.00 | 83 | 3401.7 |
| 20260505090540 | 59 | 51 | 0.0 | 0.0 | 0.00 | 0.00 | 0.00 | 82 | 3401.9 |
| 20260505090038 | 59 | 51 | 0.0 | 0.0 | 0.00 | 0.00 | 0.00 | 82 | 3401.7 |
| 20260505085536 | 59 | 51 | 0.0 | 0.0 | 0.00 | 0.00 | 0.00 | 82 | 3401.8 |
| 20260505085034 | 59 | 51 | 0.0 | 0.0 | 0.00 | 0.00 | 0.00 | 81 | 3402.0 |
| 20260505084531 | 59 | 51 | 0.0 | 0.0 | 0.00 | 0.00 | 0.00 | 81 | 3401.8 |
| 20260505084029 | 60 | 51 | 0.0 | 0.0 | 0.00 | 0.00 | 0.00 | 81 | 3401.7 |
| 20260505083526 | 60 | 51 | 0.0 | 0.0 | 0.00 | 0.00 | 0.00 | 80 | 3401.7 |
| 20260505083023 | 60 | 51 | 0.0 | 0.0 | 0.00 | 0.00 | 0.00 | 79 | 3401.5 |
| 20260505082518 | 60 | 51 | 0.0 | 0.0 | 0.00 | 0.00 | 0.00 | 78 | 3401.7 |
| 20260505082015 | 61 | 51 | 0.0 | 0.0 | 0.00 | 0.00 | 0.00 | 78 | 3401.5 |
| 20260505081512 | 61 | 51 | 0.0 | 0.0 | 0.00 | 0.00 | 0.00 | 77 | 3401.5 |
| 20260505081009 | 61 | 49 | 0.0 | 0.0 | 0.00 | 0.00 | 0.00 | 77 | 3401.7 |
| 20260505080505 | 61 | 49 | 0.0 | 2.0 | 0.00 | 0.00 | 0.00 | 77 | 3401.5 |
| 20260505080001 | 61 | 67 | 0.0 | 0.0 | 0.00 | 0.00 | 0.00 | 77 | 3401.6 |
| 20260505075458 | 62 | 125 | 0.0 | 0.0 | 0.00 | 0.00 | 0.00 | 76 | 3401.4 |
| 20260505074955 | 62 | 126 | 0.0 | 0.0 | 0.00 | 0.00 | 0.00 | 76 | 3401.5 |
| 20260505074452 | 62 | 66 | 0.0 | 0.0 | 0.00 | 0.00 | 0.00 | 76 | 3401.7 |
| 20260505073949 | 62 | 65 | 0.0 | 0.0 | 0.00 | 0.00 | 0.00 | 76 | 3401.4 |
| 20260505073447 | 62 | 120 | 0.0 | 0.0 | 0.00 | 0.00 | 0.00 | 75 | 3401.4 |
| 20260505072944 | 62 | 107 | 0.0 | 0.0 | 0.00 | 0.00 | 0.00 | 75 | 3401.5 |
| 20260505072440 | 62 | 108 | 0.0 | 0.0 | 0.00 | 0.00 | 0.00 | 75 | 3401.3 |
| 20260505071936 | 62 | 107 | 0.0 | 0.0 | 0.00 | 0.00 | 0.00 | 74 | 3401.3 |
| 20260505071432 | 63 | 107 | 0.0 | 0.0 | 0.00 | 0.00 | 0.00 | 74 | 3401.3 |
| 20260505070931 | 63 | 106 | 0.0 | 0.0 | 0.00 | 0.00 | 0.00 | 73 | 3401.4 |
| 20260505070427 | 63 | 70 | 0.0 | 0.0 | 0.00 | 0.00 | 0.00 | 73 | 3401.5 |
| 20260505065922 | 63 | 65 | 0.0 | 0.0 | 0.00 | 0.00 | 0.00 | 73 | 3401.6 |
| 20260505065419 | 63 | 91 | 0.0 | 0.0 | 0.00 | 0.00 | 0.00 | 74 | 3401.3 |
| 20260505064916 | 63 | 100 | 0.0 | 0.0 | 0.00 | 0.00 | 0.00 | 73 | 3401.2 |
| 20260505064413 | 63 | 129 | 0.0 | 0.0 | 0.00 | 0.00 | 0.00 | 73 | 3401.3 |
| 20260505063912 | 63 | 111 | 0.0 | 0.0 | 0.00 | 0.00 | 0.00 | 72 | 3401.3 |
| 20260505063407 | 64 | 103 | 0.0 | 0.0 | 0.00 | 0.00 | 0.00 | 72 | 3401.0 |
| 20260505062904 | 64 | 68 | 0.0 | 0.0 | 0.00 | 0.00 | 0.00 | 72 | 3401.3 |
| 20260505062401 | 64 | 83 | 0.0 | 0.0 | 0.00 | 0.00 | 0.00 | 72 | 3401.1 |
| 20260505061858 | 63 | 123 | 1.0 | 2.0 | 0.00 | 0.00 | 0.00 | 72 | 3401.2 |
| 20260505061356 | 64 | 117 | 0.0 | 0.0 | 0.00 | 0.00 | 0.00 | 73 | 3401.4 |
| 20260505060854 | 64 | 111 | 0.0 | 0.0 | 0.00 | 0.00 | 0.00 | 72 | 3401.2 |
| 20260505060350 | 64 | 143 | 0.0 | 0.0 | 0.00 | 0.00 | 0.00 | 72 | 3401.4 |
| 20260505055846 | 64 | 141 | 0.0 | 2.0 | 0.00 | 0.00 | 0.00 | 71 | 3401.4 |
| 20260505055342 | 64 | 148 | 0.0 | 2.0 | 0.00 | 0.00 | 0.00 | 71 | 3401.4 |
| 20260505054840 | 64 | 146 | 0.0 | 0.0 | 0.00 | 0.00 | 0.00 | 71 | 3401.4 |
| 20260505054337 | 64 | 147 | 0.0 | 0.0 | 0.00 | 0.00 | 0.00 | 71 | 3401.7 |
| 20260505053835 | 64 | 146 | 0.0 | 0.0 | 0.00 | 0.00 | 0.00 | 71 | 3401.6 |
| 20260505053332 | 64 | 160 | 1.0 | 2.0 | 0.00 | 0.00 | 0.00 | 72 | 3401.6 |
| 20260505052828 | 64 | 163 | 0.0 | 0.0 | 0.00 | 0.00 | 0.00 | 71 | 3401.5 |
| 20260505052325 | 64 | 164 | 0.0 | 0.0 | 0.00 | 0.00 | 0.00 | 72 | 3401.5 |
| 20260505051823 | 64 | 164 | 1.0 | 3.0 | 0.00 | 0.00 | 0.00 | 70 | 3401.2 |
| 20260505051320 | 64 | 164 | 0.0 | 0.0 | 0.00 | 0.00 | 0.00 | 70 | 3401.5 |
| 20260505050818 | 64 | 163 | 0.0 | 2.0 | 0.00 | 0.00 | 0.00 | 70 | 3401.3 |
| 20260505050317 | 64 | 160 | 0.0 | 0.0 | 0.00 | 0.00 | 0.00 | 72 | 3401.5 |
| 20260505041746 | 65 | 159 | 0.0 | 0.0 | 0.00 | 0.00 | 0.00 | 70 | 3401.5 |
| 20260505041243 | 65 | 159 | 0.0 | 0.0 | 0.00 | 0.00 | 0.00 | 69 | 3401.5 |
| 20260505040741 | 65 | 159 | 0.0 | 0.0 | 0.00 | 0.00 | 0.00 | 68 | 3401.5 |
| 20260505040238 | 65 | 159 | 0.0 | 0.0 | 0.00 | 0.00 | 0.00 | 68 | 3401.2 |
| 20260505035735 | 66 | 159 | 0.0 | 0.0 | 0.00 | 0.00 | 0.00 | 68 | 3401.6 |
| 20260505035230 | 66 | 159 | 0.0 | 0.0 | 0.00 | 0.00 | 0.00 | 67 | 3401.4 |
| 20260505034728 | 66 | 159 | 0.0 | 0.0 | 0.00 | 0.00 | 0.00 | 66 | 3401.4 |
| 20260505034224 | 66 | 159 | 0.0 | 0.0 | 0.00 | 0.00 | 0.00 | 66 | 3401.5 |
| 20260505033721 | 66 | 159 | 0.0 | 0.0 | 0.00 | 0.00 | 0.00 | 66 | 3401.5 |
| 20260505033219 | 67 | 160 | 0.0 | 0.0 | 0.00 | 0.00 | 0.00 | 65 | 3401.1 |
| 20260505032717 | 67 | 119 | 1.0 | 2.0 | 0.00 | 0.00 | 0.00 | 65 | 3401.4 |
| 20260505032212 | 67 | 90 | 0.0 | 0.0 | 0.00 | 0.00 | 0.00 | 65 | 3401.4 |
| 20260505031710 | 67 | 89 | 0.0 | 0.0 | 0.00 | 0.00 | 0.00 | 64 | 3401.2 |
| 20260505031206 | 67 | 84 | 0.0 | 0.0 | 0.00 | 0.00 | 0.00 | 64 | 3401.4 |
| 20260505030703 | 68 | 84 | 0.0 | 0.0 | 0.00 | 0.00 | 0.00 | 64 | 3401.3 |
| 20260505030159 | 67 | 132 | 0.0 | 0.0 | 0.00 | 0.00 | 0.00 | 64 | 3401.2 |
| 20260505025655 | 68 | 134 | 0.0 | 0.0 | 0.00 | 0.00 | 0.00 | 64 | 3401.2 |
| 20260505025154 | 68 | 131 | 0.0 | 0.0 | 0.00 | 0.00 | 0.00 | 63 | 3400.9 |
| 20260505024651 | 68 | 116 | 0.0 | 0.0 | 0.00 | 0.00 | 0.00 | 63 | 3401.1 |
| 20260505024148 | 68 | 116 | 2.0 | 2.0 | 0.00 | 0.00 | 0.00 | 62 | 3400.8 |
| 20260505023646 | 68 | 131 | 3.0 | 3.0 | 0.00 | 0.00 | 0.00 | 62 | 3400.8 |
| 20260505023143 | 68 | 101 | 0.0 | 0.0 | 0.00 | 0.00 | 0.00 | 63 | 3400.8 |
| 20260505022640 | 68 | 134 | 0.0 | 0.0 | 0.00 | 0.00 | 0.00 | 63 | 3400.7 |
| 20260505022137 | 68 | 135 | 0.0 | 0.0 | 0.00 | 0.00 | 0.00 | 63 | 3400.4 |
| 20260505021634 | 68 | 279 | 0.0 | 0.0 | 0.00 | 0.00 | 0.00 | 63 | 3400.5 |
| 20260505021130 | 68 | 279 | 0.0 | 0.0 | 0.00 | 0.00 | 0.00 | 63 | 3400.5 |
| 20260505020626 | 69 | 308 | 0.0 | 0.0 | 0.00 | 0.00 | 0.00 | 63 | 3400.1 |
| 20260505020122 | 69 | 308 | 0.0 | 0.0 | 0.00 | 0.00 | 0.00 | 62 | 3400.1 |
| 20260505015619 | 69 | 75 | 0.0 | 0.0 | 0.00 | 0.00 | 0.00 | 63 | 3400.3 |
| 20260505015116 | 69 | 75 | 0.0 | 0.0 | 0.00 | 0.00 | 0.00 | 62 | 3400.3 |
| 20260505014613 | 69 | 105 | 0.0 | 0.0 | 0.00 | 0.00 | 0.00 | 62 | 3400.0 |
| 20260505014110 | 69 | 106 | 0.0 | 0.0 | 0.00 | 0.00 | 0.00 | 61 | 3400.1 |
| 20260505013607 | 69 | 105 | 0.0 | 0.0 | 0.00 | 0.00 | 0.00 | 61 | 3400.1 |
| 20260505013104 | 70 | 106 | 0.0 | 0.0 | 0.00 | 0.00 | 0.00 | 60 | 3400.0 |
| 20260505012602 | 70 | 106 | 0.0 | 0.0 | 0.00 | 0.00 | 0.00 | 59 | 3399.9 |
| 20260505012059 | 70 | 106 | 0.0 | 0.0 | 0.00 | 0.00 | 0.00 | 59 | 3399.9 |
| 20260505011554 | 71 | 106 | 0.0 | 2.0 | 0.00 | 0.00 | 0.00 | 59 | 3400.0 |
| 20260505011052 | 71 | 106 | 0.0 | 0.0 | 0.00 | 0.00 | 0.00 | 59 | 3399.8 |
| 20260505010547 | 71 | 106 | 0.0 | 0.0 | 0.00 | 0.00 | 0.00 | 57 | 3399.8 |
| 20260505010044 | 72 | 106 | 0.0 | 0.0 | 0.00 | 0.00 | 0.00 | 56 | 3399.9 |
| 20260505005540 | 73 | 106 | 0.0 | 0.0 | 0.00 | 0.00 | 0.00 | 54 | 3399.8 |
| 20260505005038 | 73 | 105 | 0.0 | 0.0 | 0.00 | 0.00 | 0.00 | 52 | 3399.9 |
| 20260505004535 | 73 | 103 | 0.0 | 0.0 | 0.00 | 0.00 | 0.00 | 52 | 3400.0 |
| 20260505004032 | 74 | 131 | 0.0 | 0.0 | 0.00 | 0.00 | 0.00 | 51 | 3400.0 |
| 20260505003529 | 74 | 110 | 1.0 | 2.0 | 0.00 | 0.00 | 0.00 | 51 | 3400.1 |
| 20260505003026 | 75 | 92 | 0.0 | 0.0 | 0.00 | 0.00 | 0.00 | 51 | 3400.0 |
| 20260505002521 | 75 | 95 | 1.0 | 2.0 | 0.00 | 0.00 | 0.00 | 49 | 3400.2 |
| 20260505002020 | 75 | 123 | 0.0 | 2.0 | 0.00 | 0.00 | 0.00 | 48 | 3400.3 |
| 20260505001517 | 76 | 179 | 4.0 | 7.0 | 0.00 | 0.00 | 0.00 | 47 | 3400.2 |
| 20260505001014 | 76 | 128 | 0.0 | 2.0 | 0.00 | 0.00 | 0.00 | 49 | 3400.3 |
| 20260505000512 | 76 | 121 | 0.0 | 0.0 | 0.00 | 0.00 | 0.00 | 47 | 3400.4 |
| 20260505000009 | 76 | 131 | 1.0 | 2.0 | 0.00 | 0.00 | 0.00 | 47 | 3400.2 |
| 20260504235506 | 77 | 79 | 1.0 | 2.0 | 0.00 | 0.00 | 0.00 | 47 | 3400.4 |
| 20260504235002 | 77 | 156 | 1.0 | 2.0 | 0.00 | 0.00 | 0.00 | 47 | 3400.4 |
| 20260504234459 | 77 | 118 | 0.0 | 0.0 | 0.00 | 0.00 | 0.00 | 46 | 3400.3 |
| 20260504233956 | 78 | 125 | 1.0 | 2.0 | 0.00 | 0.00 | 0.00 | 45 | 3400.6 |
| 20260504233451 | 78 | 183 | 5.0 | 5.0 | 0.00 | 0.00 | 0.00 | 45 | 3400.6 |
| 20260504232949 | 78 | 155 | 1.0 | 3.0 | 0.00 | 0.00 | 0.00 | 47 | 3400.8 |
| 20260504232446 | 78 | 260 | 3.0 | 5.0 | 0.00 | 0.00 | 0.00 | 45 | 3400.7 |
| 20260504231943 | 78 | 126 | 2.0 | 2.0 | 0.00 | 0.00 | 0.00 | 45 | 3400.9 |
| 20260504231439 | 78 | 220 | 7.0 | 10.0 | 0.00 | 0.00 | 0.00 | 45 | 3400.9 |
| 20260504230935 | 79 | 186 | 5.0 | 7.0 | 0.00 | 0.00 | 0.00 | 45 | 3401.0 |